Location: Ikejouine
(32.5142°N, 5.4699°W)
Time: 16:44:12
(UTC+00:00)

ATLAS 5 CENTAUR R/B - Pass Details

Date: 09 April 2020
Orbit: 543 x 1116 km, 63.4° (Epoch: 01 May)

Event Time Altitude Azimuth Distance (km) Brightness Sun altitude
Rises 19:54:20 0° 230° (SW) 2,691 5.3 -14.4°
Reaches altitude 10° 19:56:37 10° 240° (WSW) 1,816 4.5 -14.8°
Maximum altitude 20:00:17 33° 306° (NW) 960 3.2 -15.6°
Drops below altitude 10° 20:04:15 10° 12° (NNE) 1,969 4.2 -16.4°
Sets 20:06:50 0° 21° (NNE) 2,957 5.1 -16.9°
